This is the latest recevied weather packets stored in our database for station/object N4TLC. If no packets are shown the sender has not sent any weather packets the latest 10 day(s).
| Time | Temp. | Humidity | Pressure | Rain* | Wind** | Luminosity | Snow |
|---|---|---|---|---|---|---|---|
| 1777557379 | 15° C | 80% | 1013.5 hPa | 0 mm | - | 68 W/m² | - |
| 1777557075 | 14.44° C | 81% | 1013.3 hPa | 0 mm | - | 78 W/m² | - |
| 1777556770 | 14.44° C | 80% | 1013.6 hPa | 0 mm | - | 60 W/m² | - |
| 1777556468 | 14.44° C | 78% | 1013.9 hPa | 0 mm | - | 52 W/m² | - |
| 1777556167 | 14.44° C | 80% | 1013.7 hPa | 0 mm | - | 63 W/m² | - |
| 1777555863 | 14.44° C | 81% | 1013.7 hPa | 0 mm | - | 70 W/m² | - |
| 1777555558 | 13.89° C | 81% | 1013.8 hPa | 0 mm | - | 76 W/m² | - |
| 1777555255 | 13.89° C | 80% | 1014 hPa | 0 mm | - | 78 W/m² | - |
| 1777554952 | 13.89° C | 81% | 1013.9 hPa | 0 mm | - | 65 W/m² | - |
| 1777554649 | 13.89° C | 82% | 1013.9 hPa | 0 mm | - | 60 W/m² | - |
| 1777554345 | 13.89° C | 83% | 1013.9 hPa | 0 mm | - | 64 W/m² | - |
| 1777554043 | 13.89° C | 82% | 1014 hPa | 0 mm | - | 100 W/m² | - |
| 1777553739 | 13.89° C | 82% | 1014 hPa | 0 mm | - | 75 W/m² | - |
| 1777553436 | 13.89° C | 83% | 1013.8 hPa | 0 mm | - | 81 W/m² | - |
| 1777553132 | 13.89° C | 84% | 1013.7 hPa | 0 mm | - | 65 W/m² | - |
| 1777552832 | 13.89° C | 84% | 1013.5 hPa | 0 mm | - | 76 W/m² | - |
| 1777552528 | 13.89° C | 84% | 1013.6 hPa | 0 mm | - | 58 W/m² | - |
| 1777552224 | 13.33° C | 85% | 1013.4 hPa | 0 mm | - | 49 W/m² | - |
| 1777551921 | 13.33° C | 83% | 1013.1 hPa | 0 mm | - | 56 W/m² | - |
| 1777551619 | 13.33° C | 84% | 1013.1 hPa | 0 mm | - | 43 W/m² | - |
| 1777551316 | 13.33° C | 85% | 1013 hPa | 0 mm | - | 35 W/m² | - |
| 1777551012 | 13.33° C | 84% | 1012.8 hPa | 0 mm | - | 39 W/m² | - |
| 1777550709 | 13.33° C | 84% | 1013 hPa | 0 mm | - | 33 W/m² | - |
| 1777550406 | 13.33° C | 84% | 1013.2 hPa | 0 mm | - | 33 W/m² | - |
| 1777550102 | 13.33° C | 84% | 1013.1 hPa | 0 mm | - | 25 W/m² | - |
* Rain latest hour (hover to see other rain measurements)
** Current wind speed in m/s (hover to see current wind gust speed)